WILDTRACKCUBE-SIMBA

Last updated on Wed Nov 05 2025 00:03:48 GMT+0000 (Coordinated Universal Time)

1 47941U 21022K 25308.62307581 .00065575 00000+0 83747-3 0 9991 2 47941 97.4069 217.4907 0010624 114.3645 245.8722 15.58987358256135
UTC large
Height (km)
Speed (km/s)
/
Latitude / Longitude
Inclination (degrees)
Orbital Period (minutes)
Azimuth
Elevation
Range (km)
Doppler Factor

Next 0 passes for location: London (51.5072 / 0.1276)

Sorry there are no passes over London.